Weather History for KLAX - March, 2014

Change the Weather History Date:

Sunday, March 30, 2014

  Actual Average Record
Temperature  
Mean Temperature 62 °F 59 °F  
Max Temperature 67 °F 65 °F 88 °F (2003)
Min Temperature 56 °F 52 °F 43 °F (1998)
Degree Days  
Heating Degree Days 3 7  
Month to date heating degree days 83 213  
Since 1 July heating degree days 638 1142  
Cooling Degree Days 0 0  
Month to date cooling degree days 19 0  
Year to date cooling degree days 35 9  
Growing Degree Days 12 (Base 50)    
Moisture  
Dew Point 48 °F    
Average Humidity 60    
Maximum Humidity 80    
Minimum Humidity 40    
Precipitation  
Precipitation 0.00 in 0.04 in 0.86 in (1946)
Month to date precipitation 0.36 1.81  
Year to date precipitation 3.15 7.77  
Since 1 July precipitation 4.19  
Sea Level Pressure  
Sea Level Pressure 30.01 in    
Wind  
Wind Speed 15 mph (West)    
Max Wind Speed 28 mph    
Max Gust Speed 33 mph    
Visibility 10 miles    
Events      
T = Trace of Precipitation, MM = Missing Value Source: NWS Daily Summary

Daily Weather History Graph

Daily Weather History Graph

Search for Another Location

Airport or City:

Trip Planner

Search our weather history database for the weather conditions in past years. The results will help you decide how hot, cold, wet, or windy it might be!

Date:

Astronomy

Mar. 30, 2014 Rise Set
Actual Time 6:43 AM PDT 7:12 PM PDT
Civil Twilight 6:18 AM PDT 7:37 PM PDT
Nautical Twilight 5:48 AM PDT 8:07 PM PDT
Astronomical Twilight 5:19 AM PDT 8:37 PM PDT
Moon 6:32 AM PDT (3/30) 7:29 PM PDT (3/30)
Length of Visible Light 13h 19m
Length of Day
12h 29m
New Moon, 0% of the Moon is Illuminated
Mar 30
New Moon
Apr 7
First Quarter
Apr 15
Full
Apr 22
Last Quarter
Apr 28
New

Hourly Weather History & Observations

Time (PDT) Temp. Dew Point Humidity Pressure Visibility Wind Dir Wind Speed Gust Speed Precip Events Conditions
12:53 AM 59.0 °F 52.0 °F 78% 29.99 in 10.0 mi West 24.2 mph 32.2 mph N/A   Scattered Clouds
1:53 AM 59.0 °F 53.1 °F 81% 29.99 in 10.0 mi West 24.2 mph 29.9 mph N/A   Scattered Clouds
2:53 AM 59.0 °F 53.1 °F 81% 29.99 in 10.0 mi West 19.6 mph - N/A   Scattered Clouds
3:26 AM 59.0 °F 53.6 °F 82% 29.99 in 10.0 mi WNW 8.1 mph - N/A   Mostly Cloudy
3:53 AM 59.0 °F 54.0 °F 83% 29.98 in 10.0 mi Calm Calm - N/A   Mostly Cloudy
4:19 AM 57.2 °F 51.8 °F 82% 29.98 in 10.0 mi West 21.9 mph - N/A   Overcast
4:37 AM 57.2 °F 51.8 °F 82% 29.98 in 10.0 mi West 16.1 mph - N/A   Mostly Cloudy
4:53 AM 57.9 °F 52.0 °F 81% 29.97 in 10.0 mi West 13.8 mph - N/A   Mostly Cloudy
5:53 AM 57.0 °F 52.0 °F 83% 29.98 in 10.0 mi West 15.0 mph - N/A   Mostly Cloudy
6:53 AM 57.0 °F 48.9 °F 74% 29.99 in 10.0 mi West 9.2 mph - N/A   Scattered Clouds
7:53 AM 59.0 °F 46.9 °F 64% 30.00 in 10.0 mi NNW 4.6 mph - N/A   Scattered Clouds
8:53 AM 62.1 °F 48.0 °F 60% 30.02 in 10.0 mi Variable 4.6 mph - N/A   Scattered Clouds
9:53 AM 66.0 °F 41.0 °F 40% 30.05 in 10.0 mi North 5.8 mph - N/A   Partly Cloudy
10:53 AM 64.9 °F 46.0 °F 50% 30.07 in 10.0 mi West 17.3 mph - N/A   Partly Cloudy
11:53 AM 64.9 °F 46.0 °F 50% 30.06 in 10.0 mi West 15.0 mph - N/A   Partly Cloudy
12:53 PM 66.0 °F 45.0 °F 47% 30.05 in 10.0 mi WSW 18.4 mph - N/A   Partly Cloudy
1:53 PM 66.0 °F 46.0 °F 48% 30.04 in 10.0 mi West 19.6 mph - N/A   Partly Cloudy
2:53 PM 66.0 °F 44.1 °F 45% 30.01 in 10.0 mi West 21.9 mph - N/A   Partly Cloudy
3:53 PM 66.9 °F 41.0 °F 39% 30.00 in 10.0 mi West 21.9 mph - N/A   Partly Cloudy
4:53 PM 66.0 °F 43.0 °F 43% 29.99 in 10.0 mi West 25.3 mph - N/A   Scattered Clouds
5:53 PM 64.9 °F 44.1 °F 47% 29.98 in 10.0 mi West 27.6 mph 32.2 mph N/A   Mostly Cloudy
6:53 PM 63.0 °F 46.0 °F 54% 29.99 in 10.0 mi West 25.3 mph 32.2 mph N/A   Partly Cloudy
7:53 PM 60.1 °F 48.9 °F 67% 30.00 in 10.0 mi West 19.6 mph - N/A   Partly Cloudy
8:53 PM 59.0 °F 50.0 °F 72% 30.02 in 10.0 mi West 16.1 mph - N/A   Clear
9:53 PM 57.9 °F 50.0 °F 75% 30.03 in 10.0 mi West 17.3 mph - N/A   Clear
10:53 PM 57.9 °F 50.0 °F 75% 30.03 in 10.0 mi West 11.5 mph - N/A   Clear
11:53 PM 57.0 °F 50.0 °F 77% 30.03 in 10.0 mi WSW 6.9 mph - N/A   Clear